Weather History for KT65 - April, 2013

Change the Weather History Date:

Tuesday, April 16, 2013

  Actual Average (KMFE) Record (KMFE)
Temperature  
Mean Temperature 82 °F 77 °F  
Max Temperature 95 °F 87 °F 96 °F (1998)
Min Temperature 71 °F 66 °F 44 °F (2014)
Degree Days  
Heating Degree Days 0 0  
Month to date heating degree days 3  
Since 1 July heating degree days 574  
Cooling Degree Days 18 12  
Month to date cooling degree days 173  
Year to date cooling degree days 550  
Growing Degree Days 32 (Base 50)    
Moisture  
Dew Point 69 °F    
Average Humidity 70    
Maximum Humidity 90    
Minimum Humidity 34    
Precipitation  
Precipitation 0.00 in 0.05 in 1.76 in (2012)
Month to date precipitation 0.56  
Year to date precipitation 3.75  
Sea Level Pressure  
Sea Level Pressure 29.77 in    
Wind  
Wind Speed 12 mph (SE)    
Max Wind Speed 25 mph    
Max Gust Speed 38 mph    
Visibility 7 miles    
Events      
T = Trace of Precipitation, MM = Missing Value Source: NWS Daily Summary

Daily Weather History Graph

Daily Weather History Graph

Search for Another Location

Airport or City:

Trip Planner

Search our weather history database for the weather conditions in past years. The results will help you decide how hot, cold, wet, or windy it might be!

Date:

Astronomy

Apr. 16, 2013 Rise Set
Actual Time 7:07 AM CDT 7:56 PM CDT
Civil Twilight 6:43 AM CDT 8:19 PM CDT
Nautical Twilight 6:15 AM CDT 8:47 PM CDT
Astronomical Twilight 5:47 AM CDT 9:16 PM CDT
Moon 11:41 AM CDT (4/16) 12:39 AM CDT (4/16)
Length of Visible Light 13h 36m
Length of Day
12h 48m
Waxing Crescent, 33% of the Moon is Illuminated
Apr 16
Waxing Crescent
Apr 18
First Quarter
Apr 25
Full
May 2
Last Quarter
May 9
New

Hourly Weather History & Observations

Time (CDT) Temp. Heat Index Dew Point Humidity Pressure Visibility Wind Dir Wind Speed Gust Speed Precip Events Conditions
12:15 AM 75.6 °F - 68.2 °F 78% 29.78 in 7.0 mi SSE 15.0 mph 21.9 mph N/A   Mostly Cloudy
12:35 AM 75.2 °F - 68.2 °F 79% 29.78 in 7.0 mi SE 10.4 mph 19.6 mph N/A   Scattered Clouds
12:55 AM 74.8 °F - 68.4 °F 80% 29.78 in 7.0 mi SSE 11.5 mph - N/A   Scattered Clouds
1:15 AM 74.5 °F - 68.4 °F 81% 29.78 in 7.0 mi SE 9.2 mph - N/A   Mostly Cloudy
1:35 AM 74.3 °F - 68.2 °F 81% 29.78 in 7.0 mi SE 9.2 mph - N/A   Scattered Clouds
1:55 AM 73.9 °F - 68.4 °F 83% 29.78 in 5.0 mi SE 5.8 mph - N/A   Haze
2:15 AM 73.4 °F - 68.4 °F 84% 29.77 in 5.0 mi SE 5.8 mph - N/A   Haze
2:35 AM 73.4 °F - 68.9 °F 86% 29.76 in 5.0 mi SE 6.9 mph - N/A   Mostly Cloudy
2:55 AM 73.4 °F - 68.9 °F 86% 29.76 in 5.0 mi SE 6.9 mph - N/A   Overcast
3:15 AM 73.6 °F - 68.9 °F 85% 29.75 in 5.0 mi SSE 9.2 mph - N/A   Haze
3:35 AM 73.4 °F - 68.7 °F 85% 29.75 in 5.0 mi SSE 6.9 mph - N/A   Mostly Cloudy
3:55 AM 72.9 °F - 68.5 °F 86% 29.75 in 5.0 mi SE 6.9 mph - N/A   Scattered Clouds
4:15 AM 72.7 °F - 68.5 °F 87% 29.73 in 5.0 mi ESE 8.1 mph - N/A   Scattered Clouds
4:35 AM 72.5 °F - 68.7 °F 88% 29.75 in 5.0 mi SSE 6.9 mph - N/A   Scattered Clouds
4:55 AM 72.3 °F - 68.4 °F 87% 29.74 in 5.0 mi SSE 8.1 mph - N/A   Scattered Clouds
5:15 AM 72.0 °F - 68.4 °F 88% 29.75 in 4.0 mi SE 8.1 mph - N/A   Scattered Clouds
5:35 AM 72.0 °F - 68.4 °F 88% 29.74 in 4.0 mi SSE 10.4 mph - N/A   Clear
5:55 AM 71.8 °F - 68.4 °F 89% 29.75 in 4.0 mi SSE 8.1 mph - N/A   Clear
6:15 AM 71.6 °F - 68.2 °F 89% 29.76 in 4.0 mi SE 6.9 mph - N/A   Clear
6:35 AM 71.6 °F - 68.2 °F 89% 29.76 in 4.0 mi SE 6.9 mph - N/A   Clear
7:15 AM 71.6 °F - 68.4 °F 89% 29.77 in 4.0 mi SSE 6.9 mph - N/A   Scattered Clouds
7:35 AM 72.0 °F - 68.9 °F 90% 29.77 in 2.5 mi SSE 8.1 mph - N/A   Scattered Clouds
7:55 AM 72.9 °F - 69.1 °F 88% 29.78 in 3.0 mi SE 8.1 mph - N/A   Scattered Clouds
8:15 AM 74.3 °F - 69.3 °F 84% 29.78 in 4.0 mi SSE 11.5 mph - N/A   Haze
8:35 AM 74.5 °F - 69.3 °F 84% 29.78 in 5.0 mi SSE 8.1 mph 17.3 mph N/A   Haze
8:55 AM 76.8 °F - 69.6 °F 78% 29.78 in 5.0 mi SSE 13.8 mph 17.3 mph N/A   Haze
9:15 AM 79.0 °F - 69.1 °F 72% 29.79 in 7.0 mi South 13.8 mph 19.6 mph N/A   Clear
9:35 AM 80.1 °F 82.8 °F 68.5 °F 68% 29.78 in 7.0 mi SSE 15.0 mph 23.0 mph N/A   Clear
9:55 AM 79.7 °F - 68.2 °F 68% 29.78 in 7.0 mi SSE 18.4 mph 21.9 mph N/A   Clear
10:15 AM 80.6 °F 83.2 °F 68.0 °F 65% 29.80 in 7.0 mi South 15.0 mph 18.4 mph N/A   Clear
10:35 AM 82.0 °F 84.9 °F 68.0 °F 62% 29.80 in 7.0 mi SSE 16.1 mph 24.2 mph N/A   Clear
10:55 AM 84.2 °F 87.3 °F 68.0 °F 58% 29.80 in 7.0 mi SSE 18.4 mph 25.3 mph N/A   Clear
11:15 AM 84.2 °F 87.3 °F 67.8 °F 58% 29.78 in 7.0 mi SE 18.4 mph 24.2 mph N/A   Clear
11:35 AM 85.8 °F 89.1 °F 68.2 °F 55% 29.79 in 7.0 mi SSE 17.3 mph 26.5 mph N/A   Clear
11:55 AM 86.7 °F 89.9 °F 67.6 °F 53% 29.80 in 10.0 mi SSE 18.4 mph 28.8 mph N/A   Clear
12:15 PM 88.5 °F 91.6 °F 67.1 °F 49% 29.80 in 10.0 mi SSE 20.7 mph 27.6 mph N/A   Clear
12:35 PM 88.3 °F 90.9 °F 66.6 °F 48% 29.80 in 10.0 mi SSE 19.6 mph 24.2 mph N/A   Clear
12:55 PM 89.6 °F 92.2 °F 66.0 °F 46% 29.80 in 10.0 mi SSE 15.0 mph 26.5 mph N/A   Clear
1:15 PM 89.2 °F 92.4 °F 66.9 °F 48% 29.78 in 7.0 mi SE 17.3 mph 24.2 mph N/A   Clear
1:35 PM 88.3 °F 90.9 °F 66.4 °F 48% 29.77 in 10.0 mi SSE 17.3 mph 24.2 mph N/A   Clear
1:55 PM 90.3 °F 92.6 °F 65.8 °F 44% 29.75 in 10.0 mi SE 15.0 mph 27.6 mph N/A   Clear
2:15 PM 90.9 °F 93.1 °F 65.8 °F 43% 29.74 in 10.0 mi SE 17.3 mph 28.8 mph N/A   Clear
2:35 PM 91.9 °F 93.3 °F 64.0 °F 39% 29.74 in 10.0 mi SE 17.3 mph 28.8 mph N/A   Clear
2:55 PM 94.1 °F 94.6 °F 61.9 °F 34% 29.74 in 10.0 mi SE 17.3 mph 25.3 mph N/A   Clear
3:15 PM 93.2 °F 94.1 °F 62.8 °F 36% 29.74 in 10.0 mi SSE 19.6 mph 27.6 mph N/A   Clear
3:35 PM 93.7 °F 97.2 °F 66.6 °F 41% 29.73 in 10.0 mi SSE 18.4 mph 28.8 mph N/A   Clear
3:55 PM 91.0 °F 94.7 °F 67.8 °F 46% 29.73 in 10.0 mi SSE 18.4 mph 29.9 mph N/A   Clear
4:15 PM 88.9 °F 93.4 °F 69.1 °F 52% 29.72 in 10.0 mi SE 15.0 mph 27.6 mph N/A   Clear
4:35 PM 90.7 °F 95.4 °F 68.9 °F 49% 29.73 in 10.0 mi SSE 17.3 mph 21.9 mph N/A   Clear
4:55 PM 89.1 °F 93.7 °F 69.4 °F 52% 29.74 in 10.0 mi SE 13.8 mph 23.0 mph N/A   Clear
5:15 PM 88.0 °F 92.9 °F 70.0 °F 55% 29.73 in 10.0 mi SE 11.5 mph 18.4 mph N/A   Clear
5:35 PM 87.1 °F 92.0 °F 70.2 °F 57% 29.73 in 10.0 mi SE 10.4 mph 18.4 mph N/A   Clear
5:55 PM 86.4 °F 91.4 °F 70.7 °F 59% 29.73 in 10.0 mi SE 12.7 mph 21.9 mph N/A   Clear
6:15 PM 85.3 °F 90.4 °F 70.9 °F 62% 29.73 in 7.0 mi ESE 13.8 mph 18.4 mph N/A   Clear
6:35 PM 84.6 °F 89.7 °F 71.1 °F 64% 29.73 in 7.0 mi ESE 17.3 mph 21.9 mph N/A   Clear
7:15 PM 82.6 °F 87.3 °F 71.4 °F 69% 29.76 in 7.0 mi SE 12.7 mph 19.6 mph N/A   Scattered Clouds
7:35 PM 82.4 °F 87.0 °F 71.4 °F 69% 29.78 in 10.0 mi SE 9.2 mph 16.1 mph N/A   Mostly Cloudy
7:55 PM 81.7 °F 86.0 °F 71.6 °F 71% 29.69 in 7.0 mi ESE 24.2 mph 35.7 mph N/A   Scattered Clouds
8:15 PM 80.6 °F 84.6 °F 71.6 °F 74% 29.67 in 7.0 mi SE 25.3 mph 38.0 mph N/A   Clear
8:35 PM 79.9 °F - 71.6 °F 76% 29.73 in 7.0 mi SSE 10.4 mph 28.8 mph N/A   Scattered Clouds
8:55 PM 79.9 °F - 72.0 °F 77% 29.78 in 7.0 mi SSE 11.5 mph 17.3 mph N/A   Mostly Cloudy
9:15 PM 79.7 °F - 72.0 °F 77% 29.78 in 7.0 mi SSE 12.7 mph 23.0 mph N/A   Overcast
9:35 PM 79.3 °F - 72.1 °F 79% 29.80 in 7.0 mi SSE 12.7 mph 17.3 mph N/A   Overcast
9:55 PM 79.3 °F - 72.1 °F 79% 29.81 in 7.0 mi SSE 16.1 mph 20.7 mph N/A   Overcast
10:15 PM 79.3 °F - 72.1 °F 79% 29.82 in 7.0 mi SSE 16.1 mph 21.9 mph N/A   Overcast
10:35 PM 79.2 °F - 72.3 °F 79% 29.83 in 7.0 mi SSE 10.4 mph - N/A   Overcast
10:55 PM 79.0 °F - 72.1 °F 79% 29.83 in 7.0 mi SSE 13.8 mph 21.9 mph N/A   Overcast
11:15 PM 79.0 °F - 72.5 °F 80% 29.83 in 7.0 mi SSE 12.7 mph 19.6 mph N/A   Overcast
11:35 PM 78.8 °F - 72.5 °F 81% 29.83 in 7.0 mi SSE 13.8 mph 20.7 mph N/A   Overcast
11:55 PM 78.8 °F - 72.5 °F 81% 29.83 in 7.0 mi SSE 18.4 mph 24.2 mph N/A   Overcast